Regional Weather Roundup
Issued by NWS

Home | Current Version | Previous Version | Text Only | Print | Product List | Glossary On
Versions: 1 2 3 4 5 6 7 8 9 10 11 12 13 14 15 16 17 18 19 20 21 22 23 24 25 26 27 28 29 30 31 32 33 34 35 36 37 38 39 40 41 42 43 44 45 46 47 48 49 50
000
ASUS43 KDTX 260510
RWRMI
MICHIGAN HOURLY REGIONAL WEATHER ROUNDUP
NATIONAL WEATHER SERVICE DETROIT/PONTIAC MI
1200 AM EST FRI DEC 26 2014

NOTE: "FAIR" INDICATES FEW OR NO CLOUDS BELOW 12,000 FEET WITH NO
SIGNIFICANT WEATHER AND/OR OBSTRUCTION TO VISIBILITY.

MIZ047>049-052>055-059>063-066>070-074>076-081>083-260600-
SOUTHEAST LOWER MICHIGAN

CITY           SKY/WX    TMP DP  RH WIND       PRES   REMARKS
ADRIAN         MOCLDY    33  30  88 SW9       30.12F WCI  25
ALMA           CLEAR     32  31  95 S9        30.04S WCI  25
ANN ARBOR      PTCLDY    33  30  88 S7        30.10S WCI  27
BAD AXE        PTCLDY    32  31  94 SW7       30.06S WCI  26
CARO           CLEAR     32  29  90 SW7       30.05S WCI  26
DETROIT CITY   CLEAR     37  29  72 SW13      30.12S WCI  29
DETROIT        MOCLDY    33  30  88 S7        30.12S WCI  27
FLINT          PTCLDY    35  29  78 SW7       30.08R WCI  29
GROSSE ILE     PTCLDY    36  32  87 S13       30.11F WCI  27
HILLSDALE      MOCLDY    34  32  93 S9        30.07F WCI  27
HOWELL         MOCLDY    32  30  92 S6        30.08R WCI  26

CITY           SKY/WX    TMP DP  RH WIND       PRES   REMARKS
JACKSON        MOCLDY    35  29  78 S9        30.08R WCI  28
LAMBERTVILLE   PTCLDY    36  32  87 S6        30.14S WCI  31
LANSING        PTCLDY    34  29  82 S8        30.07S WCI  27
LAPEER         FAIR      33  29  86 SW8       30.07S WCI  26
MASON          MOCLDY    33  29  85 S5        30.07R WCI  29
MONROE         CLEAR     34  30  86 S6        30.11F WCI  29
MT. CLEMENS    CLEAR     35  35  99 SW10      30.09S WCI  27
PONTIAC        PTCLDY    32  28  85 S6        30.08R WCI  26
PORT HOPE        N/A     34  28  79 SW8       30.04R WCI  27
PORT HURON     CLEAR     34  30  86 SW8       30.10R WCI  27
TRI CITIES     CLEAR     34  29  82 S8        30.05S WCI  27
TROY           CLEAR     35  31  82 SW7       30.12S WCI  30
SAGINAW HB     CLEAR     34  32  93 S10       30.05S WCI  26
$$
MIZ043>046-050>051-056>058-064>065-071>073-077>080-260600-
SOUTHWEST LOWER MICHIGAN

CITY           SKY/WX    TMP DP  RH WIND       PRES   REMARKS
BATTLE CREEK   MOCLDY    35  30  82 S10       30.07R WCI  27
BENTON HARBOR  CLOUDY    37  32  82 S10       30.05R WCI  30
BIG RAPIDS     CLEAR     33  32  95 S7        30.01R WCI  27
COLDWATER      CLOUDY    35  31  84 MISG      30.07F
FREMONT        FAIR      32  31  96 S3        30.03R
HOLLAND        CLOUDY    37  31  78 S10       30.04R WCI  30
GRAND RAPIDS   MOCLDY    34  30  85 S10       30.05R WCI  26
IONIA          FAIR      34  31  90 S9        30.04S WCI  27
KALAMAZOO      MOCLDY    35  30  82 S12       30.07R WCI  27
LUDINGTON      CLOUDY    41  36  81 S14G21    30.00R
MARSHALL       CLOUDY    34  30  86 S7        30.07R WCI  28
MOUNT PLEASANT PTCLDY    32  30  90 S5        30.03R WCI  28
MUSKEGON       MOCLDY    39  34  82 S10G20    30.03R WCI  32
SOUTH HAVEN    CLOUDY    39  33  78 S10       30.04S WCI  32
$$
MIZ016>042-260600-
NORTHERN LOWER MICHIGAN

CITY           SKY/WX    TMP DP  RH WIND       PRES   REMARKS
ALPENA         CLOUDY    35  30  82 SW6       30.02R WCI  30
BEAVER ISLAND  CLOUDY    35  33  95 W5        29.97R WCI  31
BELLAIRE       CLOUDY    38  32  81 SW6       30.00R WCI  33
CADILLAC       CLOUDY    34  32  92 S14G21    29.98R WCI  25
CHARLEVOIX     CLOUDY    36  33  89 S9        30.01R WCI  29
FRANKFORT      CLOUDY    38  36  90 S8        29.98S WCI  33
GAYLORD        CLOUDY    33  31  92 SW13      29.96R WCI  24
GRAYLING       CLOUDY    34  31  91 SW3       30.00R
HARBOR SPRINGS CLOUDY    37  33  85 SW8       29.97S WCI  30
HOUGHTON LAKE  CLOUDY    34  30  85 SW8       30.00R WCI  27
MANISTEE       CLOUDY    36  30  80 E3        30.00S
OSCODA         CLOUDY    33  30  90 SW8       30.03R WCI  26
PELLSTON       CLOUDY    35  33  92 S5        29.97R WCI  31
ROGERS CITY    CLOUDY    35  32  90 SW9       30.00R WCI  27
TRAVERSE CITY  CLOUDY    38  33  82 VRB5      29.98R WCI  34
$$
MIZ007>008-015-260600-
EASTERN UPPER MICHIGAN

CITY           SKY/WX    TMP DP  RH WIND       PRES   REMARKS
KINROSS        CLOUDY    34  34 100 SW6       29.95R WCI  29
MACKINAC ISLAN LGT SNOW  34  34 100 W9        29.96R WCI  26
NEWBERRY       CLOUDY    32  31  97 SW7       29.94R WCI  26
S. S. MARIE    CLOUDY    34  30  85 SW7       29.94R WCI  28
MUNISING         N/A     35  30  82 SW7       29.93R WCI  29
$$
MIZ004>006-011>014-085-260600-
CENTRAL UPPER MICHIGAN

CITY           SKY/WX    TMP DP  RH WIND       PRES   REMARKS
MANISTIQUE     LGT SNOW  32  32 100 MISG      29.95R
ESCANABA       CLOUDY    32  28  86 CALM      29.95R
MENOMINEE      MOCLDY    30  27  86 CALM      29.93S
SAWYER-GWINN   LGT SNOW  32  30  94 SW5       29.91S WCI  27
$$
MIZ001>003-009>011-084-260600-
WESTERN UPPER MICHIGAN

CITY           SKY/WX    TMP DP  RH WIND       PRES   REMARKS
IRON MOUNTAIN  CLOUDY    31  30  96 CALM      29.90R
HOUGHTON       CLOUDY    32  29  88 CALM      29.87R
COPPER HARBOR    N/A     34  30  85 W3        29.89R
IRONWOOD       CLOUDY    30  28  93 CALM      29.86S
$$

ABBREVIATIONS USED IN REMARKS
   TC - TEMPERATURE IN CELSIUS
  WCI - WIND CHILL INDEX
   HX - HEAT INDEX
  VSB - VISIBILITY



USA.gov is the U.S. government's official web portal to all federal, state and local government web resources and services.